Location: Gloden
(48.4833°N, 15.3167°E)
Time: 08:18:46
(UTC+00:00)

SKYMED 2 - Pass Details

Date: 15 December 2019
Orbit: 621 x 623 km, 97.9° (Epoch: 27 January)

Event Time Altitude Azimuth Distance (km) Brightness Sun altitude
Rises 04:47:22 0° 189° (S) 2,892 7.1 -18.2°
Reaches altitude 10° 04:49:44 10° 199° (SSW) 1,991 6.1 -17.8°
Maximum altitude 04:53:38 33° 264° (W) 1,065 4.2 -17.2°
Enters shadow 04:53:54 32° 272° (W) 1,071 4.2 -17.1°
